Location: Marengo
(51.4813°N, 109.7825°W)
Time: 17:06:47
(UTC+00:00)

N. Korean satellite - Visible Passes

Search period start: 24 January 2022 00:00
Search period end: 03 February 2022 00:00
Orbit: 447 x 491 km, 97.3° (Epoch: 23 January)

Date Brightness Start Highest point End Pass type
(mag) Time Alt. Az. Time Alt. Az. Time Alt. Az.
24 Jan 9.8 11:29:20 10° ENE 11:31:07 13° E 11:32:12 12° ESE visible
24 Jan 6.5 13:01:03 10° N 13:04:39 62° WNW 13:06:15 30° SW visible
25 Jan 7.0 12:31:51 10° NNE 12:35:28 61° E 12:37:10 28° S visible
25 Jan 8.3 14:06:04 10° NNW 14:08:11 15° WNW 14:10:18 10° W visible
26 Jan 9.7 00:45:10 10° SW 00:47:19 15° W 00:49:31 10° NW visible
26 Jan 8.5 12:02:56 10° NNE 12:06:09 29° E 12:08:06 18° SE visible
26 Jan 7.5 13:36:08 10° N 13:39:14 27° WNW 13:42:09 11° WSW visible
27 Jan 9.6 11:34:33 10° NE 11:36:42 15° E 11:38:51 10° SE visible
27 Jan 6.6 13:06:36 10° N 13:10:10 54° WNW 13:13:05 14° SSW visible
28 Jan 6.8 12:37:19 10° NNE 12:40:58 71° ESE 12:44:02 14° S visible
28 Jan 8.4 14:11:48 10° NNW 14:13:37 13° WNW 14:15:26 10° W visible
29 Jan 9.8 00:50:59 10° WSW 00:52:51 14° W 00:54:43 10° WNW visible
29 Jan 8.3 12:08:18 10° NNE 12:11:38 33° E 12:14:56 10° SSE visible
29 Jan 7.7 13:41:40 10° N 13:44:38 24° WNW 13:47:36 10° WSW visible
30 Jan 9.5 11:39:44 10° NE 11:42:10 17° E 11:44:36 10° SE visible
30 Jan 6.8 13:12:02 10° N 13:15:33 46° WNW 13:19:03 10° SW visible
31 Jan 6.6 12:42:40 10° NNE 12:46:20 82° ESE 12:49:57 10° SSW visible
31 Jan 8.5 14:17:28 10° NW 14:18:55 12° WNW 14:20:21 10° W visible
01 Feb 10.0 00:56:45 10° WSW 00:58:13 12° W 00:59:44 10° WNW visible
01 Feb 8.0 12:13:33 10° NNE 12:16:59 37° E 12:20:22 10° SSE visible
01 Feb 7.8 13:47:05 10° NNW 13:49:55 21° WNW 13:52:44 10° WSW visible
02 Feb 9.3 11:44:50 10° NE 11:47:29 19° E 11:50:07 10° SE visible
02 Feb 6.9 13:17:21 10° N 13:20:49 41° WNW 13:24:13 10° SW visible
